Find Starlink 33914

NORAD ID: 63774 Int'l Des: 2025-089 Owner: SPXS Country: US Constellation: starlink operational
LEOCIRCULAR

現在のビュー

3D地球を読み込み中...

Starlink 33914について

説明を読み込み中...

次回通過

Passes for default location (London). Set your location on the main map for personalized predictions.

高度履歴

Loading altitude history...

軌道要素

1 63774U 25089Y 26149.84122334 .00026604 00000-0 97196-3 0 9993
2 63774 43.0006 303.0029 0001497 266.3068 93.7613 15.27608708 61416
Epoch: May 29, 2026 • Age: 19 hours

現在のステータス

高度 485.3 km
速度 7.63 km/s
衛星直下点 35.78°N, 128.55°W
打ち上げ日 Apr 29, 2025
運用期間 1 years
タイプ internet

技術仕様

分類 Payload
質量 575.00 kg
乾燥質量 530.00 kg
総質量 575.00 kg
長さ 0.30 m
直径 4.10 m
スパン 29.00 m
形状 Box + pan
製造者 SPXS
バスタイプ Starlink V2MO
フェーズステータス In Orbit
所有者/国 SPXS/US

Most Searched